Wind_Speed
21 20 16 17 18 16 15 13 13 13 15 16 18 20 21 20 20 19 17 16 16 17 16 16 16 16 15 15 16 18 21 22 23 24 24 22 19 22 20 15 19 18 16
28 21 17 17 19 17 14 14 13 12 13 15 17 19 19 18 17 16 15 16 16 15 15 16 16 17 17 17 18 20 20 20 21 22 21 20 19 16 14 14 17 16 15
28 22 18 18 20 17 14 14 14 12 12 13 16 18 17 16 16 15 14 13 14 14 14 15 15 17 18 19 22 23 23 24 22 18 16 18 18 16 14 13 14 14 13
27 22 19 17 19 17 14 13 14 13 12 12 13 14 14 14 13 12 11 11 13 13 14 13 13 16 17 20 22 21 22 24 23 18 13 12 14 12 13 13 13 13 12
24 22 19 18 18 16 14 13 14 13 12 11 11 12 11 11 11 10 9 9 11 12 13 12 12 14 16 18 17 16 15 14 11 9 10 9 10 12 12 12 12 12 10
19 21 20 18 18 16 13 12 12 12 11 10 10 10 10 9 8 7 6 7 8 10 11 11 13 13 14 15 13 11 9 7 5 4 13 8 7 10 10 11 9 9 7
19 19 18 18 19 17 13 12 11 10 10 9 9 9 9 8 7 6 5 5 6 8 9 10 11 10 11 11 10 8 6 3 4 8 19 6 4 7 8 9 7 7 7
19 19 16 14 17 18 15 12 10 9 8 8 8 7 7 7 6 6 6 6 7 7 7 8 9 8 7 7 7 6 4 1 2 5 13 7 5 6 7 7 7 7 6
18 17 15 15 14 16 16 14 12 9 7 6 7 7 7 7 6 6 6 7 7 7 8 9 8 8 7 6 6 6 5 4 2 3 16 10 5 5 6 7 7 7 7
15 16 15 14 15 15 14 14 13 12 9 7 7 6 7 7 7 7 7 7 8 8 9 9 9 8 7 6 5 6 7 7 4 4 10 13 8 6 6 7 8 8 8
16 12 13 13 13 14 14 13 12 12 11 11 9 8 7 7 7 8 8 8 9 9 10 11 12 10 9 8 6 6 8 10 8 9 12 19 9 6 5 7 8 9 9
22 15 13 12 13 12 13 14 13 12 12 12 11 10 9 8 6 8 8 10 9 10 12 13 14 14 12 11 9 8 10 11 12 11 9 18 12 9 8 8 10 10 11
27 23 18 16 13 13 13 10 13 13 13 12 11 11 11 11 9 7 10 10 12 13 15 16 17 18 17 14 13 12 13 16 15 13 9 15 13 11 11 12 13 13 13
32 28 24 20 17 13 15 16 11 13 12 13 13 11 11 13 14 15 15 16 15 16 17 18 20 20 20 19 17 17 15 15 18 17 11 12 17 13 12 12 14 16 17
11 21 27 25 21 16 18 19 16 13 13 12 13 14 14 13 16 16 19 18 19 18 18 21 21 21 23 22 22 21 21 21 20 18 21 15 15 16 16 16 16 18 19
33 14 13 27 25 19 16 19 17 15 16 17 17 17 18 17 17 17 22 21 21 22 19 18 21 24 24 23 24 23 25 25 25 24 26 23 22 22 22 22 22 21 22
31 33 26 7 20 21 16 10 13 9 19 17 18 22 22 22 19 20 19 23 24 22 25 23 22 25 27 28 30 29 26 25 28 29 30 30 28 27 28 27 26 27 27
32 33 32 26 10 3 5 11 9 11 11 12 16 17 19 25 25 22 24 21 25 25 24 31 29 30 29 29 31 29 30 30 31 31 31 32 34 35 33 32 32 31 32
32 35 35 31 28 21 7 2 8 7 11 17 18 17 18 24 24 26 25 28 25 24 26 28 26 31 31 31 31 31 32 33 32 34 35 35 34 34 37 38 39 37 35
37 33 37 40 33 31 23 14 7 7 11 15 15 14 19 23 25 29 30 30 31 28 31 30 33 33 31 34 31 29 31 34 35 37 39 38 38 37 39 39 39 40 40
33 38 40 42 41 38 38 29 18 19 18 19 20 16 13 19 19 29 30 34 34 35 33 31 34 35 37 32 33 33 36 36 34 35 37 46 44 43 41 40 41 43 43
32 31 35 37 38 39 33 29 21 19 18 20 31 26 26 22 17 15 19 30 35 39 37 39 32 32 37 33 27 13 7 19 37 42 43 40 42 45 46 45 44 45 46
30 29 29 32 34 34 33 33 30 26 28 29 35 35 33 29 22 23 18 17 15 28 34 38 40 39 30 28 33 20 3 7 4 27 34 44 47 45 49 51 50 49 45
23 24 25 28 30 30 31 32 33 26 21 22 26 27 29 31 31 29 27 29 24 18 19 25 39 40 36 32 29 34 40 26 5 5 14 31 41 43 49 51 47 44 43
21 23 23 23 26 27 29 29 29 30 25 26 30 32 33 30 30 32 33 29 32 28 27 26 23 32 40 36 34 31 30 31 33 18 17 19 31 29 28 35 41 41 41
19 19 20 19 23 23 24 26 28 27 29 31 32 31 32 33 32 30 32 30 29 30 33 33 33 28 29 35 36 35 34 24 23 19 13 19 20 36 38 43 40 40 45
Wind_Direction
138 139 139 137 142 135 125 115 110 106 102 100 103 105 103 99 96 94 91 94 102 109 109 107 109 118 111 110 111 112 117 112 111 111 110 107 105 107 105 108 103 99 100
142 140 137 141 146 140 132 124 119 112 105 105 109 112 109 102 95 88 94 103 105 108 106 104 107 109 112 112 111 109 110 112 107 106 109 105 103 111 121 112 112 117 118
136 138 135 143 147 144 138 133 130 123 114 111 116 119 114 108 103 96 96 100 102 105 104 101 108 112 112 112 110 108 109 107 103 101 106 107 109 113 120 116 114 115 118
136 137 133 144 149 148 145 143 138 131 125 118 122 123 115 110 107 102 95 104 109 111 107 101 105 111 110 112 114 115 114 117 107 99 100 109 116 114 116 118 117 115 117
135 139 135 145 149 151 150 150 146 138 134 127 127 131 124 117 115 110 96 99 109 112 113 107 110 108 113 120 120 119 121 129 127 109 135 114 123 129 129 124 124 123 116
137 141 140 147 153 154 155 155 154 147 141 137 133 137 138 134 128 119 107 102 115 120 122 122 115 116 119 128 136 140 133 119 96 65 168 147 131 139 135 129 127 126 127
137 140 139 145 153 156 160 160 159 156 150 148 144 144 149 150 147 142 130 125 129 134 132 131 135 135 134 139 149 147 139 120 87 111 169 161 166 155 148 148 147 151 151
135 142 138 140 146 154 160 162 164 165 164 162 163 159 160 163 165 159 150 149 150 151 147 151 151 145 143 142 157 168 184 205 116 150 194 188 180 177 170 168 171 174 173
138 149 144 143 145 156 160 164 168 172 177 180 179 181 181 181 182 182 173 169 169 168 168 167 168 167 168 167 178 205 236 261 297 41 197 194 177 182 190 192 194 194 197
128 153 153 155 155 162 167 170 173 176 182 189 195 201 203 203 202 200 195 192 188 184 185 186 188 188 188 193 211 223 232 242 265 332 225 210 190 179 200 206 206 208 212
133 141 166 166 166 168 172 177 183 186 189 190 198 209 216 220 218 212 210 209 210 207 203 202 203 206 210 222 239 253 246 243 269 312 305 209 200 196 207 219 220 221 224
153 158 171 175 176 178 180 189 190 200 203 202 202 205 213 214 226 241 227 221 220 226 221 218 218 219 225 234 246 251 257 265 277 304 289 207 215 217 224 231 231 232 234
169 166 171 175 187 183 188 191 203 204 209 216 219 218 210 202 213 237 236 236 237 234 232 228 227 229 236 242 245 249 267 269 266 289 276 228 232 235 235 238 240 241 244
169 175 174 174 175 189 198 209 210 215 218 220 220 231 231 212 203 220 230 240 252 250 245 240 238 240 243 247 249 248 262 273 266 268 287 280 243 243 248 245 248 247 247
38 184 179 178 179 172 197 212 211 208 214 229 228 225 232 234 232 241 232 235 247 250 249 245 245 246 250 253 254 255 253 262 264 262 265 268 263 257 256 260 260 255 254
36 55 191 187 185 179 181 209 221 216 219 224 226 227 228 237 234 242 236 238 247 244 247 249 245 248 250 254 256 258 259 259 263 258 258 267 266 264 267 267 267 264 261
33 40 53 97 195 191 185 202 240 235 229 231 229 236 233 233 237 237 253 236 250 252 246 248 245 243 246 252 255 257 260 261 263 266 260 259 263 264 264 265 266 263 263
42 41 49 58 98 79 220 204 242 267 251 259 236 248 239 243 239 238 244 260 252 253 255 242 242 241 240 244 250 253 254 256 260 262 262 260 258 256 258 260 261 262 263
44 42 46 49 51 49 62 6 351 328 292 266 265 264 259 251 246 238 242 248 256 260 260 258 255 245 241 243 248 253 257 259 263 262 261 259 261 258 256 257 257 257 258
45 44 43 48 48 39 39 41 28 345 340 6 350 314 284 263 256 254 247 246 247 251 258 261 258 258 256 253 252 254 258 258 258 258 258 259 259 260 258 257 258 256 257
43 39 40 40 41 42 37 28 16 16 11 6 8 7 317 302 327 261 250 250 246 248 252 259 261 258 258 258 253 256 257 258 260 261 263 255 255 255 256 257 257 257 258
45 43 39 38 38 40 41 39 33 24 13 18 18 10 7 4 347 330 289 261 251 247 251 251 257 262 256 254 242 253 267 270 259 258 257 258 256 253 254 255 257 258 260
46 46 43 39 39 37 36 37 37 34 28 19 18 20 16 10 357 356 337 342 295 265 246 250 253 252 255 256 248 232 252 239 266 261 255 254 252 251 253 254 254 254 256
50 43 44 37 34 31 32 34 36 34 24 8 8 11 16 18 14 360 353 358 345 327 325 292 250 248 248 252 254 244 238 251 235 298 258 251 252 251 253 256 255 256 253
60 52 50 46 37 29 29 30 28 27 20 12 13 10 9 11 12 6 8 352 353 351 339 324 328 272 247 243 245 247 247 248 251 250 267 262 263 263 263 259 256 255 251
61 52 44 47 41 37 29 23 24 19 14 11 9 4 3 2 360 359 358 360 355 360 353 338 338 318 286 251 244 241 240 243 246 245 255 258 260 261 260 256 255 254 251
Height
798 798 800 802 805 807 809 811 814 817 820 821 823 825 826 827 828 830 830 832 833 836 837 838 838 839 838 840 841 842 844 845 845 845 847 849 850 851 852 853 852 853 855
793 799 801 804 807 810 812 813 815 819 822 824 826 828 829 831 832 833 835 836 838 838 839 839 840 840 841 843 844 844 846 847 848 849 851 851 852 853 854 854 854 855 856
795 800 803 805 808 812 814 816 817 820 823 826 827 830 831 833 835 837 838 838 839 840 840 842 843 844 844 846 845 846 848 849 851 853 854 853 854 856 856 856 856 855 857
797 802 805 808 811 814 817 818 820 821 824 826 829 831 833 835 837 839 840 841 841 841 842 844 845 845 846 846 847 850 851 852 853 854 856 855 856 857 857 857 857 857 858
799 803 806 810 813 816 819 821 823 825 826 828 830 831 833 836 838 840 841 841 842 843 844 846 846 847 848 849 851 852 853 854 855 857 858 857 857 857 858 858 858 858 858
803 804 806 811 814 818 821 823 825 827 829 830 831 833 835 837 839 841 842 842 843 845 846 846 847 849 850 851 852 853 854 855 856 857 858 858 857 858 858 858 858 858 858
806 809 810 812 815 819 823 825 827 829 830 832 834 835 837 838 840 841 843 844 845 846 847 848 849 850 851 852 853 854 855 855 856 857 857 857 857 858 858 858 858 858 859
808 811 814 815 816 820 823 827 830 832 833 834 835 837 838 840 841 842 843 845 846 848 849 850 851 852 853 854 854 854 854 855 856 857 858 857 857 857 857 857 858 859 859
810 813 815 817 820 822 824 826 829 832 835 836 837 838 840 841 842 843 845 845 847 848 850 851 852 853 854 854 854 854 854 854 855 856 856 856 855 856 856 857 857 858 859
813 815 817 819 821 823 826 827 829 831 834 836 839 840 841 842 843 844 845 846 847 848 850 851 852 853 854 854 854 854 854 853 853 855 857 855 853 854 855 856 857 857 858
814 816 818 820 822 823 826 829 830 831 833 835 837 840 841 843 844 845 846 847 848 849 849 850 851 852 853 853 854 854 853 852 853 853 852 853 852 852 852 854 855 855 855
810 813 817 821 823 825 826 828 830 833 834 835 835 837 839 842 844 845 846 846 847 849 849 850 851 851 852 852 853 853 852 852 851 851 850 850 850 849 850 851 852 853 853
805 809 812 817 823 825 826 828 830 831 833 836 837 837 837 839 841 844 845 846 847 847 848 849 849 849 850 850 851 851 851 850 850 849 850 849 848 847 847 847 848 849 849
804 806 810 813 818 823 826 827 828 830 833 834 835 838 840 840 839 840 843 844 845 846 847 847 848 848 848 848 849 849 848 848 847 847 848 848 847 846 845 844 844 845 845
812 813 810 812 815 818 823 825 827 828 830 832 835 836 838 840 841 841 840 840 842 843 843 844 845 845 846 846 846 846 846 846 846 845 844 845 845 845 844 843 841 841 841
816 815 818 814 814 817 820 824 826 827 828 830 831 833 834 837 838 839 840 840 839 839 839 840 841 842 842 842 842 842 842 842 842 841 840 840 841 840 839 839 838 837 836
823 819 817 818 821 818 819 823 826 827 828 829 831 831 832 833 835 837 837 838 837 837 837 836 836 836 838 838 838 838 838 837 837 837 836 835 835 834 834 833 832 832 831
829 824 821 821 821 823 823 824 824 826 827 828 828 830 830 830 831 833 834 835 836 835 834 833 832 832 831 832 832 832 833 832 831 831 831 830 829 828 827 827 826 825 824
836 831 827 825 823 823 822 824 825 826 827 828 828 828 828 828 828 829 829 830 832 832 832 831 829 829 827 827 826 826 826 826 825 825 823 822 821 820 819 818 817 817 816
840 837 834 829 826 825 824 824 825 826 826 826 825 825 826 825 824 823 823 824 825 826 826 826 826 826 824 823 822 820 819 819 818 816 815 813 812 811 810 810 808 807 807
845 841 837 833 832 828 825 824 825 828 828 826 825 825 823 821 822 819 816 818 819 819 819 821 821 820 819 819 819 815 813 812 810 807 806 804 803 801 801 800 799 798 797
851 849 845 842 840 838 835 835 834 833 831 829 828 827 821 819 816 817 819 814 811 812 813 814 815 814 812 813 814 813 810 805 799 798 796 795 793 792 791 789 789 789 788
855 854 852 850 848 846 844 840 836 833 831 827 826 823 824 822 818 820 814 814 812 811 804 805 806 807 806 805 806 807 808 801 792 788 785 783 782 782 781 780 779 779 779
861 860 857 855 853 851 848 845 843 842 840 840 836 832 827 824 821 816 814 813 809 806 805 803 798 797 798 797 799 797 794 791 791 786 777 774 772 772 770 769 768 768 769
864 863 862 860 858 854 851 850 848 846 845 842 837 833 829 826 823 821 813 813 808 804 802 800 795 794 788 787 788 789 788 786 785 785 774 769 768 765 762 759 758 758 759
864 863 863 862 860 858 855 853 851 849 847 842 839 835 831 827 824 822 821 816 811 801 801 797 795 789 784 780 777 776 777 776 775 777 772 766 761 755 756 754 751 750 749